Location: La Oliva
(42.2466°N, 2.9955°E)
Time: 09:59:30
(UTC+00:00)

Cosmos 1980 - Pass Details

Date: 22 April 2021
Orbit: 838 x 848 km, 71.0° (Epoch: 10 May)

Event Time Altitude Azimuth Distance (km) Brightness Sun altitude
Rises 19:31:42 0° 339° (NNW) 3,418 7.7 -10.1°
Reaches altitude 10° 19:34:15 10° 345° (NNW) 2,480 6.8 -10.5°
Maximum altitude 19:39:47 50° 61° (ENE) 1,067 4.0 -11.4°
Enters shadow 19:44:15 16° 133° (SE) 2,100 5.1 -12.1°
